START_TIME,STEP,MOV.,M15,t_acc.,M20,t_acc.
1979-07-18 03:00:43.850 ,1,0,0.,24.0,0.,24.0
1979-07-18 03:01:07.850 ,2,1,0.,24.0,0.,24.0
1979-07-18 03:01:31.850 ,2,0,0.,24.0,0.,24.0
1979-07-18 03:01:55.850 ,3,1,0.,24.0,0.,24.0
1979-07-18 03:02:19.850 ,3,0,0.,24.0,0.,24.0
1979-07-18 03:02:43.850 ,4,1,0.,24.0,0.,24.0
1979-07-18 03:03:07.850 ,4,0,0.,24.0,0.,24.0
1979-07-18 03:03:31.850 ,5,1,0.,24.0,0.,24.0
1979-07-18 03:03:55.850 ,5,0,0.,24.0,0.,24.0
1979-07-18 03:04:19.850 ,6,1,0.,24.0,0.,24.0
1979-07-18 03:04:43.850 ,6,0,0.,24.0,0.,24.0
1979-07-18 03:05:07.850 ,7,1,0.,24.0,0.,24.0
1979-07-18 03:05:31.850 ,7,0,0.,24.0,0.,24.0
1979-07-18 03:05:55.850 ,7,1,0.,24.0,0.,24.0
1979-07-18 03:06:19.850 ,7,0,0.,24.0,0.,24.0
1979-07-18 03:06:43.850 ,6,1,0.,24.0,0.,24.0
1979-07-18 03:07:07.850 ,6,0,0.,24.0,0.,24.0
1979-07-18 03:07:31.850 ,5,1,0.,24.0,0.,24.0
1979-07-18 03:07:55.850 ,5,0,0.,24.0,0.,24.0
1979-07-18 03:08:19.850 ,4,1,0.,24.0,0.,24.0
1979-07-18 03:08:43.850 ,4,0,0.,24.0,0.,24.0
1979-07-18 03:09:07.850 ,3,1,0.,24.0,0.,24.0
1979-07-18 03:09:31.850 ,3,0,0.,24.0,0.,24.0
1979-07-18 03:09:55.850 ,2,1,0.,24.0,0.,24.0
1979-07-18 03:10:19.850 ,2,0,0.,24.0,0.,24.0
1979-07-18 03:10:43.850 ,1,1,0.,24.0,0.,24.0
1979-07-18 03:11:07.850 ,1,0,0.,24.0,0.,24.0
1979-07-18 03:11:31.850 ,0,1,0.,24.0,0.,24.0
1979-07-18 03:11:55.850 ,0,0,0.,24.0,0.,24.0
1979-07-18 03:12:19.850 ,0,1,0.,24.0,0.,24.0
1979-07-18 03:12:43.850 ,0,0,0.,24.0,0.,24.0
1979-07-18 03:13:07.850 ,1,1,0.,24.0,0.,24.0
1979-07-18 03:13:31.850 ,1,0,0.,24.0,0.,24.0
1979-07-18 03:13:55.850 ,2,1,0.,24.0,0.,24.0
1979-07-18 03:14:19.850 ,2,0,0.,24.0,0.,24.0
1979-07-18 03:14:43.850 ,3,1,0.,24.0,0.,24.0
1979-07-18 03:15:07.850 ,3,0,0.,24.0,0.,24.0
1979-07-18 03:15:31.850 ,4,1,0.,24.0,0.,24.0
1979-07-18 03:15:55.850 ,4,0,0.,24.0,0.,24.0
1979-07-18 03:16:19.850 ,5,1,0.,24.0,0.,24.0
1979-07-18 03:16:43.850 ,5,0,0.,24.0,0.,24.0
1979-07-18 03:17:07.850 ,6,1,0.,24.0,0.,24.0
1979-07-18 03:17:31.850 ,6,0,0.,24.0,0.,24.0
1979-07-18 03:17:55.850 ,7,1,0.,24.0,0.,24.0
1979-07-18 03:18:19.850 ,7,0,0.,24.0,0.,24.0
1979-07-18 03:18:19.850 ,7,0,0.,24.0,0.,24.0
1979-07-18 03:18:43.850 ,7,1,0.,24.0,0.,24.0
1979-07-18 03:19:07.850 ,7,0,0.,24.0,0.,24.0
1979-07-18 03:19:31.850 ,6,1,0.,24.0,0.,24.0
1979-07-18 03:19:55.850 ,6,0,0.,24.0,0.,24.0
1979-07-18 03:20:19.850 ,5,1,0.,24.0,0.,24.0
1979-07-18 03:20:43.850 ,5,0,0.,24.0,0.,24.0
1979-07-18 03:21:07.850 ,4,1,0.,24.0,0.,24.0
1979-07-18 03:21:31.850 ,4,0,0.,24.0,0.,24.0
1979-07-18 03:21:55.850 ,3,1,0.,24.0,0.,24.0
1979-07-18 03:22:19.850 ,3,0,0.,24.0,0.,24.0
1979-07-18 03:22:43.850 ,2,1,0.,24.0,0.,24.0
1979-07-18 03:23:07.850 ,2,0,0.,24.0,0.,24.0
1979-07-18 03:23:31.850 ,1,1,0.,24.0,0.,24.0
1979-07-18 03:23:55.850 ,1,0,0.,24.0,0.,24.0
1979-07-18 03:24:19.850 ,0,1,0.,24.0,0.,24.0
1979-07-18 03:24:43.850 ,0,0,0.,24.0,0.,24.0
1979-07-18 03:25:07.850 ,0,1,0.,24.0,0.,24.0
1979-07-18 03:25:31.850 ,0,0,0.,24.0,0.,24.0
1979-07-18 03:25:55.850 ,1,1,0.,24.0,0.,24.0
1979-07-18 03:26:19.850 ,1,0,0.,24.0,0.,24.0
1979-07-18 03:26:43.850 ,2,1,0.,24.0,0.,24.0
1979-07-18 03:27:07.850 ,2,0,0.,24.0,0.,24.0
1979-07-18 03:27:31.850 ,3,1,0.,24.0,0.,24.0
1979-07-18 03:27:55.850 ,3,0,0.,24.0,0.,24.0
1979-07-18 03:28:19.850 ,4,1,0.,24.0,0.,24.0
1979-07-18 03:28:43.850 ,4,0,0.,24.0,0.,24.0
1979-07-18 03:29:07.850 ,5,1,0.,24.0,0.,24.0
1979-07-18 03:29:31.850 ,5,0,0.,24.0,0.,24.0
1979-07-18 03:29:55.850 ,6,1,0.,24.0,0.,24.0
1979-07-18 03:30:19.850 ,6,0,0.,24.0,0.,24.0
1979-07-18 03:30:43.850 ,7,0,0.,24.0,0.,24.0
1979-07-18 03:31:07.850 ,7,0,0.,24.0,0.,24.0
1979-07-18 03:31:31.850 ,3,1,0.,24.0,0.,24.0
1979-07-18 03:31:55.850 ,0,1,0.,24.0,0.,24.0
1979-07-18 03:32:19.850 ,4,1,0.,24.0,0.,24.0
1979-07-18 03:32:43.850 ,7,1,0.,24.0,0.,24.0
1979-07-18 03:33:07.850 ,3,1,0.,24.0,0.,24.0
1979-07-18 03:33:31.850 ,0,1,0.,24.0,0.,24.0
1979-07-18 03:33:55.850 ,4,1,0.,24.0,0.,24.0
1979-07-18 03:34:19.850 ,7,1,0.,24.0,0.,24.0
1979-07-18 03:34:43.850 ,3,1,0.,24.0,0.,24.0
1979-07-18 03:35:07.850 ,0,1,0.,24.0,0.,24.0
1979-07-18 03:35:31.850 ,4,1,0.,24.0,0.,24.0
1979-07-18 03:35:55.850 ,7,1,0.,24.0,0.,24.0
1979-07-18 03:36:19.850 ,3,1,0.,24.0,0.,24.0
1979-07-18 03:36:43.850 ,0,1,0.,24.0,0.,24.0
1979-07-18 03:37:07.850 ,4,1,0.,24.0,0.,24.0
1979-07-18 03:37:31.850 ,7,1,0.,24.0,0.,24.0
1979-07-18 03:37:55.850 ,3,1,0.,24.0,0.,24.0
1979-07-18 03:38:19.850 ,0,1,0.,24.0,0.,24.0
1979-07-18 03:38:43.850 ,4,1,0.,24.0,0.,24.0
1979-07-18 03:39:07.850 ,7,1,0.,24.0,0.,24.0
1979-07-18 03:39:31.850 ,3,1,0.,24.0,0.,24.0
1979-07-18 03:39:55.850 ,0,1,0.,24.0,0.,24.0
1979-07-18 03:40:19.850 ,4,1,0.,24.0,0.,24.0
1979-07-18 03:40:43.850 ,7,1,0.,24.0,0.,24.0
1979-07-18 03:41:07.850 ,3,1,0.,24.0,0.,24.0
1979-07-18 03:41:31.850 ,0,1,0.,24.0,0.,24.0
1979-07-18 03:41:55.850 ,0,0,0.,24.0,0.,24.0
1979-07-18 03:42:19.850 ,0,0,0.,24.0,0.,24.0
1979-07-18 03:42:43.850 ,5,1,0.,24.0,0.,24.0
1979-07-18 03:43:07.850 ,5,0,0.,24.0,0.,24.0
1979-07-18 03:43:31.850 ,4,1,0.,24.0,0.,24.0
1979-07-18 03:43:55.850 ,4,0,0.,24.0,0.,24.0
1979-07-18 03:44:19.850 ,3,1,0.,24.0,0.,24.0
1979-07-18 03:44:43.850 ,3,0,0.,24.0,0.,24.0
1979-07-18 03:45:07.850 ,2,1,0.,24.0,0.,24.0
1979-07-18 03:45:31.850 ,2,0,0.,24.0,0.,24.0
1979-07-18 03:45:55.850 ,1,1,0.,24.0,0.,24.0
1979-07-18 03:46:19.850 ,1,0,0.,24.0,0.,24.0
1979-07-18 03:46:43.850 ,0,1,0.,24.0,0.,24.0
1979-07-18 03:47:07.850 ,0,0,0.,24.0,0.,24.0
1979-07-18 03:47:31.850 ,0,1,0.,24.0,0.,24.0
1979-07-18 03:47:55.850 ,0,0,0.,24.0,0.,24.0
1979-07-18 03:48:19.850 ,1,1,0.,24.0,0.,24.0
1979-07-18 03:48:43.850 ,1,0,0.,24.0,0.,24.0
1979-07-18 03:49:07.850 ,2,1,0.,24.0,0.,24.0
1979-07-18 03:49:31.850 ,2,0,0.,24.0,0.,24.0
1979-07-18 03:49:55.850 ,3,1,0.,24.0,0.,24.0
1979-07-18 03:50:19.850 ,3,0,0.,24.0,0.,24.0
1979-07-18 03:50:43.850 ,4,1,0.,24.0,0.,24.0
1979-07-18 03:51:07.850 ,4,0,0.,24.0,0.,24.0
1979-07-18 03:51:31.850 ,5,1,0.,24.0,0.,24.0
1979-07-18 03:51:55.850 ,5,0,0.,24.0,0.,24.0
1979-07-18 03:52:19.850 ,6,1,0.,24.0,0.,24.0
1979-07-18 03:52:43.850 ,6,0,0.,24.0,0.,24.0
1979-07-18 03:53:07.850 ,7,1,0.,24.0,0.,24.0
1979-07-18 03:53:31.850 ,7,0,0.,24.0,0.,24.0
1979-07-18 03:53:55.850 ,7,1,0.,24.0,0.,24.0
1979-07-18 03:54:19.850 ,7,0,0.,24.0,0.,24.0
1979-07-18 03:54:43.850 ,6,1,0.,24.0,0.,24.0
1979-07-18 03:55:07.850 ,6,0,0.,24.0,0.,24.0
1979-07-18 03:55:31.850 ,5,1,0.,24.0,0.,24.0
1979-07-18 03:55:55.850 ,5,0,0.,24.0,0.,24.0
1979-07-18 03:56:19.850 ,4,1,0.,24.0,0.,24.0
1979-07-18 03:56:43.850 ,4,0,0.,24.0,0.,24.0
1979-07-18 03:57:07.850 ,3,1,0.,24.0,0.,24.0
1979-07-18 03:57:31.850 ,3,0,0.,24.0,0.,24.0
1979-07-18 03:57:55.850 ,2,1,0.,24.0,0.,24.0
1979-07-18 03:58:19.850 ,2,0,0.,24.0,0.,24.0
1979-07-18 03:58:43.850 ,1,1,0.,24.0,0.,24.0
1979-07-18 03:59:07.850 ,1,0,0.,24.0,0.,24.0
1979-07-18 03:59:31.850 ,0,1,0.,24.0,0.,24.0
1979-07-18 03:59:55.850 ,0,0,0.,24.0,0.,24.0
1979-07-18 04:00:19.850 ,0,1,0.,24.0,0.,24.0
1979-07-18 04:00:43.850 ,0,0,0.,24.0,0.,24.0
1979-07-18 04:01:07.850 ,1,1,0.,24.0,0.,24.0
1979-07-18 04:01:31.850 ,1,0,0.,24.0,0.,24.0
1979-07-18 04:01:55.850 ,2,1,0.,24.0,0.,24.0
1979-07-18 04:02:19.850 ,2,0,0.,24.0,0.,24.0
1979-07-18 04:02:43.850 ,3,1,0.,24.0,0.,24.0
1979-07-18 04:03:07.850 ,3,0,0.,24.0,0.,24.0
1979-07-18 04:03:31.850 ,4,1,0.,24.0,0.,24.0
1979-07-18 04:03:55.850 ,4,0,0.,24.0,0.,24.0
1979-07-18 04:04:19.850 ,5,1,0.,24.0,0.,24.0
1979-07-18 04:04:43.850 ,5,0,0.,24.0,0.,24.0
1979-07-18 04:05:07.850 ,6,1,0.,24.0,0.,24.0
1979-07-18 04:05:31.850 ,6,0,0.,24.0,0.,24.0
1979-07-18 04:05:55.850 ,7,1,0.,24.0,0.,24.0
1979-07-18 04:06:19.850 ,7,0,0.,24.0,0.,24.0
1979-07-18 04:06:43.850 ,7,1,0.,24.0,0.,24.0
1979-07-18 04:07:07.850 ,7,0,0.,24.0,0.,24.0
1979-07-18 04:07:31.850 ,6,1,0.,24.0,0.,24.0
1979-07-18 04:07:55.850 ,6,0,0.,24.0,0.,24.0
1979-07-18 04:08:19.850 ,5,1,0.,24.0,0.,24.0
1979-07-18 04:08:43.850 ,5,0,0.,24.0,0.,24.0
1979-07-18 04:09:07.850 ,4,1,0.,24.0,0.,24.0
1979-07-18 04:09:31.850 ,4,0,0.,24.0,0.,24.0
1979-07-18 04:09:55.850 ,3,1,0.,24.0,0.,24.0
1979-07-18 04:10:19.850 ,3,0,0.,24.0,0.,24.0
1979-07-18 04:10:43.850 ,2,1,0.,24.0,0.,24.0
1979-07-18 04:11:07.850 ,2,0,0.,24.0,0.,24.0
1979-07-18 04:11:31.850 ,1,1,0.,24.0,0.,24.0
1979-07-18 04:11:55.850 ,1,0,0.,24.0,0.,24.0
1979-07-18 04:12:19.850 ,0,1,0.,24.0,0.,24.0
1979-07-18 04:12:43.850 ,0,0,0.,24.0,0.,24.0
1979-07-18 04:13:07.850 ,0,1,0.,24.0,0.,24.0
1979-07-18 04:13:31.850 ,0,0,0.,24.0,0.,24.0
1979-07-18 04:13:55.850 ,1,1,0.,24.0,0.,24.0
1979-07-18 04:14:19.850 ,1,0,0.,24.0,0.,24.0
1979-07-18 04:14:43.850 ,2,1,0.,24.0,0.,24.0
1979-07-18 04:15:07.850 ,2,0,0.,24.0,0.,24.0
1979-07-18 04:15:31.850 ,3,1,0.,24.0,0.,24.0
1979-07-18 04:15:55.850 ,3,0,0.,24.0,0.,24.0
1979-07-18 04:16:19.850 ,4,1,0.,24.0,0.,24.0
1979-07-18 04:16:43.850 ,4,0,0.,24.0,0.,24.0
1979-07-18 04:17:07.850 ,5,1,0.,24.0,0.,24.0
1979-07-18 04:17:31.850 ,5,0,0.,24.0,0.,24.0
1979-07-18 04:17:55.850 ,6,1,0.,24.0,0.,24.0
1979-07-18 04:18:19.850 ,6,0,0.,24.0,0.,24.0
1979-07-18 04:18:43.850 ,7,0,0.,24.0,0.,24.0
1979-07-18 04:19:07.850 ,7,0,0.,24.0,0.,24.0
1979-07-18 04:19:31.850 ,3,1,0.,24.0,0.,24.0
1979-07-18 04:19:55.850 ,0,1,0.,24.0,0.,24.0
1979-07-18 04:20:19.850 ,4,1,0.,24.0,0.,24.0
1979-07-18 04:20:43.850 ,7,1,0.,24.0,0.,24.0
1979-07-18 04:21:07.850 ,3,1,0.,24.0,0.,24.0
1979-07-18 04:21:31.850 ,0,1,0.,24.0,0.,24.0
1979-07-18 04:21:55.850 ,4,1,0.,24.0,0.,24.0
1979-07-18 04:22:19.850 ,7,1,0.,24.0,0.,24.0
1979-07-18 04:22:43.850 ,3,1,0.,24.0,0.,24.0
1979-07-18 04:23:07.850 ,0,1,0.,24.0,0.,24.0
1979-07-18 04:23:31.850 ,4,1,0.,24.0,0.,24.0
1979-07-18 04:23:55.850 ,7,1,0.,24.0,0.,24.0
1979-07-18 04:24:19.850 ,3,1,0.,24.0,0.,24.0
1979-07-18 04:24:43.850 ,0,1,0.,24.0,0.,24.0
1979-07-18 04:25:07.850 ,4,1,0.,24.0,0.,24.0
1979-07-18 04:25:31.850 ,7,1,0.,24.0,0.,24.0
1979-07-18 04:25:55.850 ,3,1,0.,24.0,0.,24.0
1979-07-18 04:26:19.850 ,0,1,0.,24.0,0.,24.0
1979-07-18 04:26:43.850 ,4,1,0.,24.0,0.,24.0
1979-07-18 04:27:07.850 ,7,1,0.,24.0,0.,24.0
1979-07-18 04:27:31.850 ,3,1,0.,24.0,0.,24.0
1979-07-18 04:27:55.850 ,0,1,0.,24.0,0.,24.0
1979-07-18 04:28:19.850 ,4,1,0.,24.0,0.,24.0
1979-07-18 04:28:43.850 ,7,1,0.,24.0,0.,24.0
1979-07-18 04:29:07.850 ,3,1,0.,24.0,0.,24.0
1979-07-18 04:29:31.850 ,0,1,0.,24.0,0.,24.0
1979-07-18 04:29:55.850 ,0,0,0.,24.0,0.,24.0
1979-07-18 04:30:19.850 ,0,0,0.,24.0,0.,24.0
1979-07-18 04:30:43.850 ,5,1,0.,24.0,0.,24.0
1979-07-18 04:31:07.850 ,5,0,0.,24.0,0.,24.0
1979-07-18 04:31:31.850 ,4,1,0.,24.0,0.,24.0
1979-07-18 04:31:55.850 ,4,0,0.,24.0,0.,24.0
1979-07-18 04:32:19.850 ,3,1,0.,24.0,0.,24.0
1979-07-18 04:32:43.850 ,3,0,0.,24.0,0.,24.0
1979-07-18 04:33:07.850 ,2,1,0.,24.0,0.,24.0
1979-07-18 04:33:31.850 ,2,0,0.,24.0,0.,24.0
1979-07-18 04:33:55.850 ,1,1,0.,24.0,0.,24.0
1979-07-18 04:34:19.850 ,1,0,0.,24.0,0.,24.0
1979-07-18 04:34:43.850 ,0,1,0.,24.0,0.,24.0
1979-07-18 04:35:07.850 ,0,0,0.,24.0,0.,24.0
1979-07-18 04:35:31.850 ,0,1,0.,24.0,0.,24.0
1979-07-18 04:35:55.850 ,0,0,0.,24.0,0.,24.0
1979-07-18 04:36:19.850 ,1,1,0.,24.0,0.,24.0
1979-07-18 04:36:43.850 ,1,0,0.,24.0,0.,24.0
1979-07-18 04:37:07.850 ,2,1,0.,24.0,0.,24.0
1979-07-18 04:37:31.850 ,2,0,0.,24.0,0.,24.0
1979-07-18 04:37:55.850 ,3,1,0.,24.0,0.,24.0
1979-07-18 04:38:19.850 ,3,0,0.,24.0,0.,24.0
1979-07-18 04:38:43.850 ,4,1,0.,24.0,0.,24.0
1979-07-18 04:39:07.850 ,4,0,0.,24.0,0.,24.0
1979-07-18 04:39:31.850 ,5,1,0.,24.0,0.,24.0
1979-07-18 04:39:55.850 ,5,0,0.,24.0,0.,24.0
1979-07-18 04:40:19.850 ,6,1,0.,24.0,0.,24.0
1979-07-18 04:40:43.850 ,6,0,0.,24.0,0.,24.0
1979-07-18 04:41:07.850 ,7,1,0.,24.0,0.,24.0
1979-07-18 04:41:31.850 ,7,0,0.,24.0,0.,24.0
1979-07-18 04:41:55.850 ,7,1,0.,24.0,0.,24.0
1979-07-18 04:42:19.850 ,7,0,0.,24.0,0.,24.0
1979-07-18 04:42:43.850 ,6,1,0.,24.0,0.,24.0
1979-07-18 04:43:07.850 ,6,0,0.,24.0,0.,24.0
1979-07-18 04:43:31.850 ,5,1,0.,24.0,0.,24.0
1979-07-18 04:43:55.850 ,5,0,0.,24.0,0.,24.0
1979-07-18 04:44:19.850 ,4,1,0.,24.0,0.,24.0
1979-07-18 04:44:43.850 ,4,0,0.,24.0,0.,24.0
1979-07-18 04:45:07.840 ,3,1,0.,24.0,0.,24.0
1979-07-18 04:45:31.840 ,3,0,0.,24.0,0.,24.0
1979-07-18 04:45:55.840 ,2,1,0.,24.0,0.,24.0
1979-07-18 04:46:19.840 ,2,0,0.,24.0,0.,24.0
1979-07-18 04:46:43.840 ,1,1,0.,24.0,0.,24.0
1979-07-18 04:47:07.840 ,1,0,0.,24.0,0.,24.0
1979-07-18 04:47:31.840 ,0,1,0.,24.0,0.,24.0
1979-07-18 04:47:55.840 ,0,0,0.,24.0,0.,24.0
1979-07-18 04:48:19.840 ,0,1,0.,24.0,0.,24.0
1979-07-18 04:48:43.840 ,0,0,0.,24.0,0.,24.0
1979-07-18 04:49:07.840 ,1,1,0.,24.0,0.,24.0
1979-07-18 04:49:31.840 ,1,0,0.,24.0,0.,24.0
1979-07-18 04:49:55.840 ,2,1,0.,24.0,0.,24.0
1979-07-18 04:50:19.840 ,2,0,0.,24.0,0.,24.0
1979-07-18 04:50:43.840 ,3,1,0.,24.0,0.,24.0
1979-07-18 04:51:07.840 ,3,0,0.,24.0,0.,24.0
1979-07-18 04:51:31.840 ,4,1,0.,24.0,0.,24.0
1979-07-18 04:51:55.840 ,4,0,0.,24.0,0.,24.0
1979-07-18 04:52:19.840 ,5,1,0.,24.0,0.,24.0
1979-07-18 04:52:43.840 ,5,0,0.,24.0,0.,24.0
1979-07-18 04:53:07.840 ,6,1,0.,24.0,0.,24.0
1979-07-18 04:53:31.840 ,6,0,0.,24.0,0.,24.0
1979-07-18 04:53:55.840 ,7,1,0.,24.0,0.,24.0
1979-07-18 04:54:19.840 ,7,0,0.,24.0,0.,24.0
1979-07-18 04:54:43.840 ,7,1,0.,24.0,0.,24.0
1979-07-18 04:55:07.840 ,7,0,0.,24.0,0.,24.0
1979-07-18 04:55:31.840 ,6,1,0.,24.0,0.,24.0
1979-07-18 04:55:55.840 ,6,0,0.,24.0,0.,24.0
1979-07-18 04:56:19.840 ,5,1,0.,24.0,0.,24.0
1979-07-18 04:56:43.840 ,5,0,0.,24.0,0.,24.0
1979-07-18 04:57:07.840 ,4,1,0.,24.0,0.,24.0
1979-07-18 04:57:31.840 ,4,0,0.,24.0,0.,24.0
1979-07-18 04:57:55.840 ,3,1,0.,24.0,0.,24.0
1979-07-18 04:58:19.840 ,3,0,0.,24.0,0.,24.0
1979-07-18 04:58:43.840 ,2,1,0.,24.0,0.,24.0
1979-07-18 04:59:07.840 ,2,0,0.,24.0,0.,24.0
1979-07-18 04:59:31.840 ,1,1,0.,24.0,0.,24.0
1979-07-18 04:59:55.840 ,1,0,0.,24.0,0.,24.0
1979-07-18 05:00:19.850 ,0,1,0.,24.0,0.,24.0
1979-07-18 05:00:43.850 ,0,0,0.,24.0,0.,24.0
1979-07-18 05:01:07.850 ,0,1,0.,24.0,0.,24.0
1979-07-18 05:01:31.850 ,0,0,0.,24.0,0.,24.0
1979-07-18 05:01:55.850 ,1,1,0.,24.0,0.,24.0
1979-07-18 05:02:19.850 ,1,0,0.,24.0,0.,24.0
1979-07-18 05:02:43.850 ,2,1,0.,24.0,0.,24.0
1979-07-18 05:03:07.850 ,2,0,0.,24.0,0.,24.0
1979-07-18 05:03:31.850 ,3,1,0.,24.0,0.,24.0
1979-07-18 05:03:55.850 ,3,0,0.,24.0,0.,24.0
1979-07-18 05:04:19.840 ,4,1,0.,24.0,0.,24.0
1979-07-18 05:04:43.840 ,4,0,0.,24.0,0.,24.0
1979-07-18 05:05:07.840 ,5,1,0.,24.0,0.,24.0
1979-07-18 05:05:31.840 ,5,0,0.,24.0,0.,24.0
1979-07-18 05:05:55.840 ,6,1,0.,24.0,0.,24.0
1979-07-18 05:06:19.840 ,6,0,0.,24.0,0.,24.0
1979-07-18 05:06:43.840 ,7,0,0.,24.0,0.,24.0
1979-07-18 05:07:07.840 ,7,0,0.,24.0,0.,24.0
1979-07-18 05:07:31.840 ,3,1,0.,24.0,0.,24.0
1979-07-18 05:07:55.840 ,0,1,0.,24.0,0.,24.0
1979-07-18 05:08:19.840 ,4,1,0.,24.0,0.,24.0
1979-07-18 05:08:43.840 ,7,1,0.,24.0,0.,24.0
1979-07-18 05:09:07.840 ,3,1,0.,24.0,0.,24.0
1979-07-18 05:09:31.840 ,0,1,0.,24.0,0.,24.0
1979-07-18 05:09:55.840 ,4,1,0.,24.0,0.,24.0
1979-07-18 05:10:19.840 ,7,1,0.,24.0,0.,24.0
1979-07-18 05:10:43.840 ,3,1,0.,24.0,0.,24.0
1979-07-18 05:11:07.840 ,0,1,0.,24.0,0.,24.0
1979-07-18 05:11:31.840 ,4,1,0.,24.0,0.,24.0
1979-07-18 05:11:55.840 ,7,1,0.,24.0,0.,24.0
1979-07-18 05:12:19.840 ,3,1,0.,24.0,0.,24.0
1979-07-18 05:12:43.840 ,0,1,0.,24.0,0.,24.0
1979-07-18 05:13:07.840 ,4,1,0.,24.0,0.,24.0
1979-07-18 05:13:31.840 ,7,1,0.,24.0,0.,24.0
1979-07-18 05:13:55.840 ,3,1,0.,24.0,0.,24.0
1979-07-18 05:14:19.840 ,0,1,0.,24.0,0.,24.0
1979-07-18 05:14:43.840 ,4,1,0.,24.0,0.,24.0
1979-07-18 05:15:07.840 ,7,1,0.,24.0,0.,24.0
1979-07-18 05:15:31.840 ,3,1,0.,24.0,0.,24.0
1979-07-18 05:15:55.840 ,0,1,0.,24.0,0.,24.0
1979-07-18 05:16:19.840 ,4,1,0.,24.0,0.,24.0
1979-07-18 05:16:43.840 ,7,1,0.,24.0,0.,24.0
1979-07-18 05:17:07.840 ,3,1,0.,24.0,0.,24.0
1979-07-18 05:17:31.840 ,0,1,0.,24.0,0.,24.0
1979-07-18 05:17:55.840 ,0,0,0.,24.0,0.,24.0
1979-07-18 05:18:19.840 ,0,0,0.,24.0,0.,24.0
1979-07-18 05:18:43.840 ,5,1,0.,24.0,0.,24.0
1979-07-18 05:19:07.840 ,5,0,0.,24.0,0.,24.0
1979-07-18 05:19:31.840 ,4,1,0.,24.0,0.,24.0
1979-07-18 05:19:55.840 ,4,0,0.,24.0,0.,24.0
1979-07-18 05:20:19.840 ,3,1,0.,24.0,0.,24.0
1979-07-18 05:20:43.840 ,3,0,0.,24.0,0.,24.0
1979-07-18 05:21:07.840 ,2,1,0.,24.0,0.,24.0
1979-07-18 05:21:31.840 ,2,0,0.,24.0,0.,24.0
1979-07-18 05:21:55.840 ,1,1,0.,24.0,0.,24.0
1979-07-18 05:22:19.840 ,1,0,0.,24.0,0.,24.0
1979-07-18 05:22:43.840 ,0,1,0.,24.0,0.,24.0
1979-07-18 05:23:07.840 ,0,0,0.,24.0,0.,24.0
1979-07-18 05:23:31.840 ,0,1,0.,24.0,0.,24.0
1979-07-18 05:23:55.840 ,0,0,0.,24.0,0.,24.0
1979-07-18 05:24:19.840 ,1,1,0.,24.0,0.,24.0
1979-07-18 05:24:43.840 ,1,0,0.,24.0,0.,24.0
1979-07-18 05:25:07.840 ,2,1,0.,24.0,0.,24.0
1979-07-18 05:25:31.840 ,2,0,0.,24.0,0.,24.0
1979-07-18 05:25:55.840 ,3,1,0.,24.0,0.,24.0
1979-07-18 05:26:19.840 ,0,0,,0,,0
1979-07-18 05:26:45.640 ,4,1,0.,24.0,0.,24.0
1979-07-18 05:27:07.840 ,4,0,0.,24.0,0.,24.0
1979-07-18 05:27:31.840 ,5,1,0.,24.0,0.,24.0
1979-07-18 05:27:55.840 ,5,0,0.,24.0,0.,24.0
1979-07-18 05:28:19.840 ,6,1,0.,24.0,0.,24.0
1979-07-18 05:28:43.840 ,6,0,0.,24.0,0.,24.0
1979-07-18 05:29:07.840 ,7,1,0.,24.0,0.,24.0
1979-07-18 05:29:31.840 ,7,0,0.,24.0,0.,24.0
1979-07-18 05:29:55.840 ,7,1,0.,24.0,0.,24.0
1979-07-18 05:30:19.840 ,7,0,0.,24.0,0.,24.0
1979-07-18 05:30:43.840 ,6,1,0.,24.0,0.,24.0
1979-07-18 05:31:07.840 ,6,0,0.,24.0,0.,24.0
1979-07-18 05:31:31.840 ,5,1,0.,24.0,0.,24.0
1979-07-18 05:31:55.840 ,5,0,0.,24.0,0.,24.0
1979-07-18 05:32:19.840 ,4,1,0.,24.0,0.,24.0
1979-07-18 05:32:43.840 ,4,0,0.,24.0,0.,24.0
1979-07-18 05:33:07.840 ,3,1,0.,24.0,0.,24.0
1979-07-18 05:33:31.840 ,3,0,0.,24.0,0.,24.0
1979-07-18 05:33:55.840 ,2,1,0.,24.0,0.,24.0
1979-07-18 05:34:19.840 ,2,0,0.,24.0,0.,24.0
1979-07-18 05:34:43.840 ,1,1,0.,24.0,0.,24.0
1979-07-18 05:35:07.840 ,1,0,0.,24.0,0.,24.0
1979-07-18 05:35:31.840 ,0,1,0.,24.0,0.,24.0
1979-07-18 05:35:55.840 ,0,0,0.,24.0,0.,24.0
1979-07-18 05:36:19.840 ,0,1,0.,24.0,0.,24.0
1979-07-18 05:36:43.840 ,0,0,0.,24.0,0.,24.0
1979-07-18 05:37:07.840 ,1,1,0.,24.0,0.,24.0
1979-07-18 05:37:31.840 ,1,0,0.,24.0,0.,24.0
1979-07-18 05:37:55.840 ,2,1,0.,24.0,0.,24.0
1979-07-18 05:38:19.840 ,2,0,0.,24.0,0.,24.0
1979-07-18 05:38:43.840 ,3,1,0.,24.0,0.,24.0
1979-07-18 05:39:07.840 ,3,0,0.,24.0,0.,24.0
1979-07-18 05:39:31.840 ,4,1,0.,24.0,0.,24.0
1979-07-18 05:39:55.840 ,4,0,0.,24.0,0.,24.0
1979-07-18 05:40:19.840 ,5,1,0.,24.0,0.,24.0
1979-07-18 05:40:43.840 ,5,0,0.,24.0,0.,24.0
1979-07-18 05:41:07.840 ,6,1,0.,24.0,0.,24.0
1979-07-18 05:41:31.840 ,6,0,0.,24.0,0.,24.0
1979-07-18 05:41:55.840 ,7,1,0.,24.0,0.,24.0
1979-07-18 05:42:19.840 ,7,0,0.,24.0,0.,24.0
1979-07-18 05:42:43.840 ,0,0,0.,24.0,0.,24.0
1979-07-18 05:43:07.840 ,0,0,,0,,0
1979-07-18 05:43:07.840 ,0,0,,0,,0
1979-07-18 05:43:31.840 ,0,0,0.,24.0,0.,24.0
1979-07-18 05:43:55.840 ,0,0,0.,24.0,0.,24.0
1979-07-18 05:44:19.840 ,5,1,0.,24.0,0.,24.0
1979-07-18 05:44:43.840 ,5,0,0.,24.0,0.,24.0
1979-07-18 05:45:07.840 ,4,1,0.,24.0,0.,24.0
1979-07-18 05:45:31.840 ,4,0,0.,24.0,0.,24.0
1979-07-18 05:45:55.840 ,3,1,0.,24.0,0.,24.0
1979-07-18 05:46:19.840 ,3,0,0.,24.0,0.,24.0
1979-07-18 05:46:43.840 ,2,1,0.,24.0,0.,24.0
1979-07-18 05:47:07.840 ,2,0,0.,24.0,0.,24.0
1979-07-18 05:47:31.840 ,1,1,0.,24.0,0.,24.0
1979-07-18 05:47:55.840 ,1,0,0.,24.0,0.,24.0
1979-07-18 05:48:19.840 ,0,1,0.,24.0,0.,24.0
1979-07-18 05:48:43.840 ,0,0,0.,24.0,0.,24.0
1979-07-18 05:49:07.840 ,0,1,0.,24.0,0.,24.0
1979-07-18 05:49:31.840 ,0,0,0.,24.0,0.,24.0
1979-07-18 05:49:55.840 ,1,1,0.,24.0,0.,24.0
1979-07-18 05:50:19.840 ,1,0,0.,24.0,0.,24.0
1979-07-18 05:50:43.840 ,2,1,0.,24.0,0.,24.0
1979-07-18 05:51:07.840 ,2,0,0.,24.0,0.,24.0
1979-07-18 05:51:31.840 ,3,1,0.,24.0,0.,24.0
1979-07-18 05:51:55.840 ,3,0,1.,24.0,0.,24.0
1979-07-18 05:52:19.840 ,4,1,0.,24.0,0.,24.0
1979-07-18 05:52:43.840 ,4,0,0.,24.0,0.,24.0
1979-07-18 05:53:07.840 ,5,1,0.,24.0,0.,24.0
1979-07-18 05:53:31.840 ,5,0,0.,24.0,0.,24.0
1979-07-18 05:53:55.840 ,6,1,0.,24.0,0.,24.0
1979-07-18 05:54:19.840 ,6,0,0.,24.0,0.,24.0
1979-07-18 05:54:43.840 ,7,0,0.,24.0,0.,24.0
1979-07-18 05:55:07.840 ,7,0,0.,24.0,0.,24.0
1979-07-18 05:55:31.840 ,3,1,0.,24.0,0.,24.0
1979-07-18 05:55:55.840 ,0,1,0.,24.0,0.,24.0
1979-07-18 05:56:19.840 ,4,1,0.,24.0,0.,24.0
1979-07-18 05:56:43.840 ,7,1,0.,24.0,0.,24.0
1979-07-18 05:57:07.840 ,3,1,0.,24.0,0.,24.0
1979-07-18 05:57:31.840 ,0,1,0.,24.0,0.,24.0
1979-07-18 05:57:55.840 ,4,1,0.,24.0,0.,24.0
1979-07-18 05:58:19.840 ,7,1,0.,24.0,0.,24.0
1979-07-18 05:58:43.840 ,3,1,0.,24.0,0.,24.0
1979-07-18 05:59:07.840 ,0,1,0.,24.0,0.,24.0
1979-07-18 05:59:31.840 ,4,1,0.,24.0,0.,24.0
1979-07-18 05:59:55.840 ,7,1,0.,24.0,0.,24.0
1979-07-18 06:00:19.840 ,3,1,0.,24.0,0.,24.0
